This is the latest recevied weather packets stored in our database for station/object M0HPP-13. If no packets are shown the sender has not sent any weather packets the latest 10 day(s).
| Time | Temp. | Humidity | Pressure | Rain* | Wind** | Luminosity | Snow |
|---|---|---|---|---|---|---|---|
| 1788568086 | 10.56° C | 99% | 1005.4 hPa | 1.27 mm | - | 0 W/m² | - |
| 1788567486 | 10.56° C | 99% | 1005.4 hPa | 1.78 mm | - | 0 W/m² | - |
| 1788566886 | 10.56° C | 99% | 1005.2 hPa | 2.29 mm | - | 0 W/m² | - |
| 1788566286 | 10.56° C | 99% | 1005.1 hPa | 2.29 mm | - | 0 W/m² | - |
| 1788565686 | 10.56° C | 98% | 1005 hPa | 2.29 mm | - | 0 W/m² | - |
| 1788565086 | 10.56° C | 98% | 1004.8 hPa | 2.03 mm | - | 0 W/m² | - |
| 1788564486 | 10.56° C | 98% | 1004.5 hPa | 1.27 mm | - | 0 W/m² | - |
| 1788562686 | 11.11° C | 92% | 1004.2 hPa | 0 mm | - | 0 W/m² | - |
| 1788562086 | 11.11° C | 87% | 1004.1 hPa | 0 mm | - | 0 W/m² | - |
| 1788561486 | 11.11° C | 86% | 1003.9 hPa | 0 mm | - | 0 W/m² | - |
| 1788560886 | 11.11° C | 86% | 1004 hPa | 0 mm | - | 0 W/m² | - |
| 1788560286 | 11.11° C | 87% | 1003.9 hPa | 0 mm | - | 0 W/m² | - |
| 1788559686 | 11.11° C | 85% | 1003.9 hPa | 0 mm | - | 0 W/m² | - |
| 1788559086 | 11.67° C | 84% | 1003.9 hPa | 0 mm | - | 0 W/m² | - |
| 1788558486 | 11.67° C | 85% | 1003.9 hPa | 0 mm | - | 0 W/m² | - |
| 1788557886 | 11.67° C | 86% | 1003.7 hPa | 0 mm | - | 0 W/m² | - |
| 1788557286 | 11.11° C | 87% | 1003.8 hPa | 0 mm | - | 0 W/m² | - |
| 1788556686 | 10.56° C | 89% | 1003.6 hPa | 0 mm | - | 0 W/m² | - |
| 1788556086 | 10.56° C | 89% | 1003.7 hPa | 0 mm | - | 0 W/m² | - |
| 1788555486 | 11.11° C | 88% | 1003.4 hPa | 0 mm | - | 0 W/m² | - |
| 1788554886 | 11.11° C | 87% | 1003.3 hPa | 0 mm | - | 0 W/m² | - |
| 1788554286 | 11.11° C | 87% | 1003.3 hPa | 0 mm | - | 0 W/m² | - |
| 1788553686 | 11.11° C | 87% | 1003 hPa | 0 mm | - | 0 W/m² | - |
| 1788553086 | 11.11° C | 88% | 1002.9 hPa | 0 mm | - | 0 W/m² | - |
| 1788552486 | 11.11° C | 87% | 1002.8 hPa | 0 mm | - | 0 W/m² | - |
* Rain latest hour (hover to see other rain measurements)
** Current wind speed in m/s (hover to see current wind gust speed)